User: anonymous   Login
Location: The Jewett Observatory
(46.7288°N, 117.1525°W)
Time: 04:29:27
(UTC-08:00)
Language:

Cosmos 1633 - Orbit

View from above orbital plane
View from above orbital plane
View from above satellite
View from above satellite

Ground track
Ground track

The orbit data is extracted from the following two-line orbital elements,

1 15592U 85020A   16341.54483368  .00001955  00000-0  70450-4 0  9993
2 15592  82.5368 152.2285 0014896 134.1354 226.1113 15.27821492734876
Epoch (UTC): 06 December 2016 13:04:33
Eccentricity: 0.0014896
inclination: 82.5368°
perigee height: 472 km
apogee height: 492 km
right ascension of ascending node: 152.2285°
argument of perigee: 134.1354°
revolutions per day: 15.27821492
mean anomaly at epoch: 226.1113°
orbit number at epoch: 73487

The dashed part of the orbit path shows where the satellite is in the earth's shadow,  

DLR